TITAN 3C TRANSTAGE DEB, 38695

Orbit data source: Space-Track

TITAN 3C TRANSTAGE DEB, 38695 is space debris in GEO originally from a launch on Thu, 26 Sep 1968 UTC launched from the Air Force Eastern Test Range (AFETR). Debris objects in space refer to the collection of defunct objects orbiting the Earth. Examples of debris include non-operational satellites, rocket bodies, and fragments generated from explosions, collisions, or faulty payload assembly.

Not visible in the next 10 days
Identifier
38695, 1968-081V
Orbit
GEO
Country
Flag of USUS
Related business
Manufacturer
Unknown
Mission
Spacecraft
Bus & Motor
Unknown
Mass
Unknown
Launch date (UTC)
1968-09-26 (58 years ago)
Launch vehicle
Unknown
Launch site
Air Force Eastern Test Range (AFETR)
Object type
Payload
Rocket body
Debris
Shape & HBR
Unknown shape, 1.1 m
Radar Cross Section
Medium (>0.1 m² and <1 m²)

Expand to show TLE details & history
Last TLE update: 8 months ago

TLE from 8 months ago
0 TITAN 3C TRANSTAGE DEB
1 38695U 68081V   26009.73578191 -.00000090  00000-0  00000-0 0  9992
2 38695   1.9319  22.3763 0438520 269.4944 164.5784  0.99391606 61778
Epoch: 2026-01-09T17:39Z
TLE epoch observation values (Epoch: 2026-01-09T17:39:31.557Z)
Latitude
1.88576°
Longitude
83.57444°
Altitude
37,840.549 km
Speed
2.938 km/s
True Right ascension
06h 30m 54s
True Declination
1° 53' 02"
Sunlit
Object was in daylight at epoch
Visualization orbit readout
Latitude
Unknown
Longitude
Unknown
Altitude
Unknown
Speed
Unknown
Apparent Right ascension
Unknown
Apparent Declination
Unknown
Sunlit
N/A
Visualization observer readout
Local Sidereal Time
05:06:15
Azimuth
Unknown
Elevation
Unknown
Doppler factor
Unknown
Orbital elements
Apogee altitude
37,896.18 km
Perigee altitude
34,176.271 km
Semi-major axis
42,414.363 km
Eccentricity
0.04385
Inclination
1.9319°
RAAN
22.3763°
Arg. of periapsis
269.4944°
True anomaly
165.84737°
Mean anomaly
164.5784°
Eccentric anomaly
165.21939°
Mean motion
0.24847 °/min
Orbital period
1,448.87 mins
BSTAR
0
Loading maneuver chart data...
Computing Atmospheric mass density...

Documentation

Showing up to 5 results
|